Location: Gu�tanj
(46.5431°N, 14.9692°E)
Time: 05:19:54
(UTC+00:00)

Cosmos 864 Rocket - Pass Details

Date: 03 March 2021
Orbit: 954 x 991 km, 82.9° (Epoch: 18 April)

Event Time Altitude Azimuth Distance (km) Brightness Sun altitude
Rises 19:04:27 0° 189° (S) 3,622 7.4 -23.9°
Reaches altitude 10° 19:06:55 10° 191° (S) 2,684 6.7 -24.3°
Maximum altitude 19:13:05 81° 279° (W) 981 4.5 -25.3°
Drops below altitude 10° 19:19:20 10° 7° (N) 2,725 7.0 -26.3°
Sets 19:21:52 0° 9° (N) 3,682 7.7 -26.7°
